write mail from CFAD0::NAKANO on 2005-03-05 03:18:44(JST).

 



    P/2003 S1 (NEAT)                                                      

Epoch 2004 Mar. 16.0 TT = JDT 2453080.5  

T 2004 Mar. 27.61695 TT                                 Nakano

q   2.5956811            (2000.0)            P               Q

n   0.10132396     Peri.  175.81323     +0.54601915     -0.83285421

a   4.5568138      Node   241.06893     +0.76560226     +0.53998646

e   0.4303737      Incl.    5.94496     +0.34017095     +0.12152565

P   9.73 (+/- 0.04 day)

From 299 observations 2003 Sept. 4-2004 Feb. 11, mean residual 0".64.



NAKANO

         **** Don't distribute anyone except personal use only ****

                (C) Copyright 2004 OAA/ComputingSection

write mail from CFAD0::NAKANO on 2004-02-22 01:35:38(JST).

 



    P/2003 S1 (NEAT)                                                      

Epoch 2004 Mar. 16.0 TT = JDT 2453080.5  

T 2004 Mar. 27.60806 TT                                 Nakano

q   2.5957486            (2000.0)            P               Q

n   0.10132960     Peri.  175.81028     +0.54607743     -0.83281592

a   4.5566445      Node   241.06787     +0.76556519     +0.54004059

e   0.4303377      Incl.    5.94507     +0.34016082     +0.12154751

P   9.73 (+/- 0.06 day)

From 287 observations 2003 Sept. 4-2004 Jan. 17, mean residual 0".65.



NAKANO

         **** Don't distribute anyone except personal use only ****

                (C) Copyright 2004 OAA/ComputingSection

write mail from CFAD0::NAKANO on 2004-01-21 21:27:50(JST).

 

    P/2003 S1 (NEAT)                                                      

Epoch 2004 Mar. 16.0 TT = JDT 2453080.5  

T 2004 Mar. 27.59806 TT                                 Nakano

q   2.5957645            (2000.0)            P               Q

n   0.10133403     Peri.  175.80701     +0.54611931     -0.83278852

a   4.5565119      Node   241.06826     +0.76553777     +0.54007875

e   0.4303176      Incl.    5.94501     +0.34015528     +0.12156569

P   9.73 (+/- 0.12 day)

From 257 observations 2003 Sept. 4-Dec. 6, mean residual 0".65.



NAKANO

         **** Don't distribute anyone except personal use only ****

                (C) Copyright 2003 OAA/ComputingSection

write mail from CFAD0::NAKANO on 2003-12-14 18:52:00(JST).

 

    P/2003 S1 (NEAT)                                                      

Epoch 2004 Mar. 16.0 TT = JDT 2453080.5  

T 2004 Mar. 27.59063 TT                                 Nakano

q   2.5957719            (2000.0)            P               Q

n   0.10133697     Peri.  175.80417     +0.54614859     -0.83276940

a   4.5564236      Node   241.06909     +0.76551823     +0.54010516

e   0.4303050      Incl.    5.94491     +0.34015226     +0.12157933

P   9.73 (+/- 0.15 day)

From 243 observations 2003 Sept. 4-Nov. 17, mean residual 0".64.



NAKANO

         **** Don't distribute anyone except personal use only ****

                (C) Copyright 2003 OAA/ComputingSection

write mail from CFAD0::NAKANO on 2003-11-20 02:00:59(JST).



  P/2003 S1 (NEAT)                                                      

T 2004 Mar. 27.86059 TT                                 Nakano

q   2.5951894            (2000.0)            P               Q

n   0.10119424     Peri.  175.90897     +0.54496751     -0.83354096

a   4.5607073      Node   241.04562     +0.76629914     +0.53903218

e   0.4309678      Incl.    5.94737     +0.34028819     +0.12105280

P   9.74 (+/- 0.44 day)

From 150 observations 2003 Sept. 4-Oct. 18.



NAKANO

         **** Don't distribute anyone except personal use only ****

                (C) Copyright 2003 OAA/ComputingSection

write mail from CFAD0::NAKANO on 2003-10-19 02:58:01(JST).

 



◎P/2003 S1の軌道と予報位置です

 

  9月25日と26日のシェロ−ドの CCD全光度は,それぞれ,17.8等と18.2等でした.

 

    P/2003 S1 (NEAT)                                                      

T 2004 Mar. 23.85133 TT                                 Nakano

q   2.6074060            (2000.0)            P               Q

n   0.10221585     Peri.  174.44677     +0.56338774     -0.82122082

a   4.5302679      Node   241.23138     +0.75398724     +0.55584140

e   0.4244477      Incl.    5.92610     +0.33778321     +0.12898339

P   9.64 (+/-10.67 day)

From 45 observations 2003 Sept. 4-26.

 

Date/        TT  R.A.(2000) Decl.     Delta   r     Daily motion  Mag.  Moon Age

              h    h  m       。  ,                      ,  / PA 。  m1      。

2003 Sept.25 14  00 34.18  +11 29.1   1.894  2.881     9.7 / 243  17.8  159  .01

          26 14  00 33.59  +11 24.7   1.889  2.878     9.8 / 242  17.8  169  .00

          27 14  00 33.00  +11 20.1   1.884  2.875    10.0 / 242  17.8  165  .03

          28 14  00 32.40  +11 15.4   1.880  2.872    10.1 / 242  17.7  152  .08

          29 14  00 31.80  +11 10.6   1.876  2.870    10.2 / 241  17.7  138  .16

          30 14  00 31.19  +11 05.7   1.873  2.867    10.3 / 241  17.7  124  .26

     Oct.  1 14  00 30.59  +11 00.8   1.869  2.864    10.3 / 241  17.7  109  .36

           2 14  00 29.97  +10 55.7   1.866  2.862    10.4 / 240  17.7   95  .48

           3 14  00 29.36  +10 50.5   1.863  2.859    10.4 / 240  17.7   82  .59

           4 14  00 28.75  +10 45.3   1.861  2.856    10.5 / 239  17.7   68  .69

           5 14  00 28.14  +10 39.9   1.859  2.854    10.5 / 239  17.7   55  .78

           6 14  00 27.53  +10 34.6   1.857  2.851    10.5 / 239  17.7   42  .86

           7 14  00 26.93  +10 29.1   1.855  2.848    10.5 / 238  17.7   30  .93

           8 14  00 26.32  +10 23.6   1.853  2.846    10.5 / 238  17.7   19  .97

           9 14  00 25.72  +10 18.0   1.852  2.843    10.4 / 237  17.6   11  .99

          10 14  00 25.13  +10 12.4   1.851  2.840    10.4 / 237  17.6   14 1.00

          11 14  00 24.54  +10 06.8   1.851  2.838    10.3 / 237  17.6   24  .98

          12 14  00 23.95  +10 01.1   1.850  2.835    10.3 / 236  17.6   35  .95

          13 14  00 23.38  +09 55.4   1.850  2.833    10.2 / 236  17.6   47  .91

          14 14  00 22.81  +09 49.6   1.850  2.830    10.1 / 235  17.6   58  .84

          15 14  00 22.25  +09 43.9   1.851  2.827    10.0 / 235  17.6   70  .77

          16 14  00 21.70  +09 38.1   1.851  2.825     9.9 / 234  17.6   82  .68

          17 14  00 21.16  +09 32.3   1.852  2.822     9.7 / 234  17.6   94  .59

          18 14  00 20.63  +09 26.6   1.854  2.820     9.6 / 233  17.6  106  .49

          19 14  00 20.11  +09 20.8   1.855  2.817     9.4 / 233  17.6  119  .39

          20 14  00 19.61  +09 15.1   1.857  2.815     9.3 / 232  17.6  131  .30

          21 14  00 19.11  +09 09.4   1.859  2.812     9.1 / 231  17.6  145  .20

          22 14  00 18.63  +09 03.7   1.861  2.810     8.9 / 231  17.6  158  .12

          23 14  00 18.17  +08 58.0   1.864  2.807     8.7 / 230  17.6  168  .06

          24 14  00 17.72  +08 52.4   1.867  2.805     8.5 / 229  17.6  167  .01

          25 14  00 17.29  +08 46.9   1.870  2.803     8.3 / 228  17.6  154  .00

          26 14  00 16.87  +08 41.4   1.873  2.800     8.0 / 227  17.6  139  .02

          27 14  00 16.47  +08 35.9   1.876  2.798     7.8 / 226  17.6  125  .06

          28 14  00 16.09  +08 30.6   1.880  2.795     7.6 / 225  17.6  110  .13

          29 14  00 15.73  +08 25.3   1.884  2.793     7.3 / 224  17.6   95  .22

          30 14  00 15.38  +08 20.0   1.888  2.791     7.1 / 223  17.6   81  .33

          31 14  00 15.06  +08 14.9   1.893  2.788     6.8 / 222  17.6   67  .43

     Nov.  1 14  00 14.75  +08 09.8   1.898  2.786     6.5 / 221  17.6   54  .54

NAKANO

         **** Don't distribute anyone except personal use only ****

                (C) Copyright 2003 OAA/ComputingSection

write mail from CFAD0::NAKANO on 2003-09-27 04:34:15(JST).



戻ります。